Skip Page Navigation
NASA JPL Caltech
NASA Logo - Jet Propulsion Laboratory + View the NASA Portal
+ Center for Near-Earth Object Studies
JPL Home Earth Solar System Stars & Galaxies Technology
JPL Solar System Dynamics
BODIES ORBITS EPHEMERIDES TOOLS PHYSICAL DATA DISCOVERY FAQ SITE MAP
JPL Small-Body Database Browser
Search: [ help ]  
437627 (2014 BX28)
Classification: Main-belt Asteroid          SPK-ID: 2437627
Ephemeris | Orbit Diagram | Orbital Elements | Mission Design | Physical Parameters | Discovery Circumstances | Close-Approach Data ]

[ show orbit diagram ]
Orbital Elements at Epoch 2459000.5 (2020-May-31.0) TDB
Reference: JPL 13 (heliocentric ecliptic J2000)
 Element Value Uncertainty (1-sigma)   Units 
e .1659760738602892 9.5984e-08  
a 3.15042724682025 5.1402e-08 au
q 2.627531701410544 2.9088e-07 au
i 10.36284050299815 7.9846e-06 deg
node 286.7238396943604 5.5592e-05 deg
peri 8.321102421988657 7.4347e-05 deg
M 234.6195421442203 5.5804e-05 deg
tp 2459711.844470274199
(2022-May-12.34447027)
0.00032833 TDB
period 2042.455528382862
5.59
4.9987e-05
1.369e-07
d
yr
n .1762584276608628 4.3137e-09 deg/d
Q 3.673322792229955 5.9933e-08 au
  Orbit Determination Parameters
   # obs. used (total)      104  
   data-arc span      7066 days (19.35 yr)  
   first obs. used      2000-09-27  
   last obs. used      2020-02-01  
   planetary ephem.      DE431  
   SB-pert. ephem.      SB431-N16  
   condition code      0  
   norm. resid. RMS      .6298  
   source      ORB  
   producer      Otto Matic  
   solution date      2020-Feb-26 10:12:56  

Additional Information
 Earth MOID = 1.61194 au 
 Jupiter MOID = 1.53647 au 
 T_jup = 3.161 
[ show covariance matrix ]

Ephemeris | Orbit Diagram | Orbital Elements | Mission Design | Physical Parameters | Discovery Circumstances | Close-Approach Data ]

Physical Parameter Table
Parameter Symbol Value Units Sigma Reference Notes
absolute magnitude H 16.1   n/a MPO428071  

437627 (2014 BX28)          Discovered 2005-Jul-06 by Spacewatch at Kitt Peak
Reference: Last Updated: 2015-06-04

[ show close-approach data ]
Alternate Designations
 2014 BX28 = 2005 LS52 = 2005 NE94 = 2011 QD27 
Ephemeris | Orbit Diagram | Orbital Elements | Mission Design | Physical Parameters | Discovery Circumstances | Close-Approach Data ]
ABOUT SSD CREDITS/AWARDS PRIVACY/COPYRIGHT GLOSSARY LINKS
FirstGov 2020-Aug-08 04:00 UT
(server date/time)  
NASA Home Page
Site Manager:   Ryan S. Park
Webmaster  Alan B. Chamberlin